Showing default

ICEYE-X56, 64574

Orbit data source: Space-Track

ICEYE-X56, 64574 is a payload satellite owned by ICEYE (FI) in SSO that was launched on Mon, 23 Jun 2025 UTC via an FALCON 9 launch vehicle from the Air Force Western Test Range (AFWTR). Payload-class satellites include a variety of spacecraft equipped with specific instruments for various scientific and technological missions. These include communications satellites like Starlink; space stations such as the ISS; scientific satellites like the Hubble; Earth observation satellites from companies like Planet Labs, Umbra, and HawkEye 360; GPS; miniature CubeSats for education and research; and military/defense satellites.

Loading next visibility...
Identifier
64574, 2025-135AY
Orbit
SSO
Country
Flag of FIFI / FIN
Related business
Manufacturer
ICEYE
Mission
Operational Commercial Radar Imaging
Bus & Motor
ICEYE, Unknown motor
Mass
80 kg wet, 80 kg dry
Launch date (UTC)
2025-06-23 (1 year ago)
Launch vehicle
FALCON 9
Launch site
Air Force Western Test Range (AFWTR)
Object type
Payload
Rocket body
Debris
Shape & HBR
Box + 1 Pan, 2.4 m
Radar Cross Section
0.776 m², Medium (>0.1 m² and < 1m²)

Expand to show TLE details & history
Last TLE update: 7 hours ago

TLE from 7 hours ago
0 ICEYE-X56
1 64574U 25135AY  26171.57750396  .00002188  00000-0  20223-3 0  9992
2 64574  97.7743 286.5086 0001289 358.4018   1.7198 14.95622335 54431
Epoch: 2026-06-20T13:51Z
TLE epoch observation values (Epoch: 2026-06-20T13:51:36.342Z)
Latitude
-0.00005°
Longitude
169.81705°
Altitude
582.591 km
Speed
7.57 km/s
True Right ascension
19h 06m 02s
True Declination
0° 00' 00"
Sunlit
Object was in full shadow at epoch
Visualization orbit readout
Latitude
Unknown
Longitude
Unknown
Altitude
Unknown
Speed
Unknown
Apparent Right ascension
Unknown
Apparent Declination
Unknown
Sunlit
N/A
Visualization observer readout
Local Sidereal Time
07:21:27
Azimuth
Unknown
Elevation
Unknown
Doppler factor
Unknown
Orbital elements
Apogee altitude
578.353 km
Perigee altitude
576.56 km
Semi-major axis
6,955.593 km
Eccentricity
0.00013
Inclination
97.7743°
RAAN
286.5086°
Arg. of periapsis
358.4018°
True anomaly
1.72024°
Mean anomaly
1.7198°
Eccentric anomaly
1.72002°
Mean motion
3.74147 °/min
Orbital period
96.22 mins
BSTAR
0.00020223
Loading maneuver chart data...
Computing Atmospheric mass density...
Loading historical data...
Loading historical data...
Loading historical data...
Loading historical data...
Loading historical data...
Loading historical data...
Loading historical data...

Documentation

Showing up to 5 results
|